SHIJIAN-20 (SJ-20)

Last updated on Jan. 18, 2020, 12:02 a.m. UTC

1 44910U 19097A   20017.71921123 -.00000366  00000-0  00000+0 0  9995
2 44910   0.1151 288.1245 0005968  88.2167 115.6581  1.00266520   210
UTC
Height (km)
Latitude
Longitude
Inclination
Orbital Period
UTC large
Height (km)
Speed (km/s)
/
Latitude / Longitude
Inclination (degrees)
Orbital Period (minutes)
Azimuth
Elevation
Range (km)
Doppler Factor
iOS Compass Heading
iOS Angle

Next 30 passes for location: Hong Kong

Rise time Rise Azimuth (degrees) Set time Set Azimuth (degrees) Duration Max altitude (degrees)

No matching passes for this satellites